| time (UTC) | temp F | wind direction | speed knots | gust knots | rain 1hr in | rain 24hr in | rain mn in | humidity % | barometer mb |
| 20260509174100 | 82 | 311 | 3.5 | 8.7 | 0.00 | 0.00 | 0.00 | 65 | 1010.2 |
| 20260509173600 | 82 | 324 | 3.5 | 8.7 | 0.00 | 0.00 | 0.00 | 67 | 1010.2 |
| 20260509173103 | 82 | 25 | 3.5 | 8.7 | 0.00 | 0.00 | 0.00 | 66 | 1010.3 |
| 20260509172601 | 82 | 335 | 3.5 | 8.7 | 0.00 | 0.00 | 0.00 | 65 | 1010.2 |
| 20260509172101 | 82 | 278 | 4.3 | 8.7 | 0.00 | 0.00 | 0.00 | 64 | 1010.3 |
| 20260509171559 | 82 | 302 | 1.7 | 9.6 | 0.00 | 0.00 | 0.00 | 67 | 1010.3 |
| 20260509171100 | 82 | 28 | 4.3 | 9.6 | 0.00 | 0.00 | 0.00 | 69 | 1010.4 |
| 20260509170601 | 81 | 51 | 4.3 | 8.7 | 0.00 | 0.00 | 0.00 | 66 | 1010.5 |
| 20260509170107 | 82 | 335 | 5.2 | 8.7 | 0.00 | 0.00 | 0.00 | 65 | 1010.4 |
| 20260509165600 | 81 | 292 | 3.5 | 7.8 | 0.00 | 0.00 | 0.00 | 64 | 1010.4 |
| 20260509165101 | 81 | 296 | 5.2 | 11.3 | 0.00 | 0.00 | 0.00 | 64 | 1010.5 |
| 20260509164600 | 81 | 306 | 5.2 | 11.3 | 0.00 | 0.00 | 0.00 | 65 | 1010.6 |
| 20260509164100 | 80 | 292 | 5.2 | 9.6 | 0.00 | 0.00 | 0.00 | 65 | 1010.7 |
| 20260509163559 | 80 | 309 | 5.2 | 9.6 | 0.00 | 0.00 | 0.00 | 65 | 1010.8 |
| 20260509163100 | 80 | 4 | 2.6 | 8.7 | 0.00 | 0.00 | 0.00 | 67 | 1010.7 |
| 20260509162601 | 80 | 307 | 4.3 | 9.6 | 0.00 | 0.00 | 0.00 | 69 | 1010.8 |
| 20260509162100 | 80 | 310 | 6.1 | 9.6 | 0.00 | 0.00 | 0.00 | 65 | 1010.7 |
| 20260509161602 | 80 | 302 | 5.2 | 8.7 | 0.00 | 0.00 | 0.00 | 67 | 1010.7 |
| 20260509161100 | 80 | 310 | 4.3 | 8.7 | 0.00 | 0.00 | 0.00 | 66 | 1010.7 |
| 20260509160601 | 80 | 317 | 5.2 | 8.7 | 0.00 | 0.00 | 0.00 | 67 | 1010.7 |
| 20260509160101 | 79 | 320 | 6.1 | 10.4 | 0.00 | 0.00 | 0.00 | 64 | 1010.7 |
| 20260509155600 | 80 | 319 | 6.1 | 10.4 | 0.00 | 0.01 | 0.00 | 66 | 1010.7 |
| 20260509155100 | 80 | 286 | 4.3 | 7.0 | 0.00 | 0.01 | 0.00 | 65 | 1010.6 |
| 20260509154601 | 79 | 269 | 2.6 | 8.7 | 0.00 | 0.01 | 0.00 | 66 | 1010.6 |
| 20260509154100 | 79 | 324 | 6.1 | 8.7 | 0.00 | 0.01 | 0.00 | 67 | 1010.6 |
| 20260509153600 | 79 | 297 | 5.2 | 8.7 | 0.00 | 0.01 | 0.00 | 66 | 1010.6 |
| 20260509153102 | 79 | 278 | 4.3 | 8.7 | 0.00 | 0.01 | 0.00 | 66 | 1010.7 |
| 20260509152603 | 79 | 263 | 5.2 | 8.7 | 0.00 | 0.01 | 0.00 | 65 | 1010.7 |
| 20260509152104 | 79 | 351 | 4.3 | 8.7 | 0.00 | 0.01 | 0.00 | 65 | 1010.6 |
| 20260509151605 | 79 | 301 | 4.3 | 8.7 | 0.00 | 0.01 | 0.00 | 66 | 1010.7 |
| 20260509151100 | 78 | 293 | 5.2 | 8.7 | 0.00 | 0.01 | 0.00 | 65 | 1010.7 |
| 20260509150600 | 78 | 290 | 5.2 | 8.7 | 0.00 | 0.01 | 0.00 | 67 | 1010.7 |
| 20260509150059 | 78 | 304 | 5.2 | 8.7 | 0.00 | 0.01 | 0.00 | 69 | 1010.7 |
| 20260509145601 | 78 | 287 | 4.3 | 8.7 | 0.00 | 0.09 | 0.00 | 71 | 1010.7 |
| 20260509145105 | 77 | 333 | 5.2 | 8.7 | 0.00 | 0.09 | 0.00 | 74 | 1010.7 |
| 20260509144558 | 77 | 302 | 5.2 | 8.7 | 0.00 | 0.09 | 0.00 | 74 | 1010.7 |
| 20260509144100 | 77 | 326 | 4.3 | 7.8 | 0.00 | 0.09 | 0.00 | 77 | 1010.7 |
| 20260509143603 | 76 | 315 | 5.2 | 8.7 | 0.00 | 0.09 | 0.00 | 77 | 1010.6 |
| 20260509143102 | 75 | 297 | 4.3 | 8.7 | 0.00 | 0.09 | 0.00 | 77 | 1010.6 |
| 20260509142600 | 75 | 331 | 4.3 | 7.0 | 0.00 | 0.09 | 0.00 | 79 | 1010.6 |
| 20260509142101 | 75 | 310 | 4.3 | 7.8 | 0.00 | 0.09 | 0.00 | 78 | 1010.6 |
| 20260509141558 | 75 | 311 | 4.3 | 7.8 | 0.00 | 0.09 | 0.00 | 80 | 1010.6 |
| 20260509141103 | 74 | 285 | 5.2 | 7.8 | 0.00 | 0.09 | 0.00 | 80 | 1010.7 |
| 20260509140603 | 74 | 334 | 5.2 | 7.8 | 0.00 | 0.09 | 0.00 | 82 | 1010.7 |
| 20260509140105 | 73 | 328 | 5.2 | 7.0 | 0.00 | 0.09 | 0.00 | 82 | 1010.7 |
| 20260509135603 | 73 | 293 | 5.2 | 7.0 | 0.00 | 0.09 | 0.00 | 83 | 1010.7 |
| 20260509135100 | 73 | 335 | 4.3 | 7.0 | 0.00 | 0.09 | 0.00 | 84 | 1010.7 |
| 20260509134628 | 72 | 306 | 3.5 | 6.1 | 0.00 | 0.09 | 0.00 | 84 | 1010.6 |
| 20260509134103 | 72 | 290 | 3.5 | 5.2 | 0.00 | 0.09 | 0.00 | 85 | 1010.5 |
| 20260509133600 | 72 | 318 | 3.5 | 7.0 | 0.00 | 0.09 | 0.00 | 86 | 1010.5 |
| 20260509133100 | 71 | 303 | 4.3 | 7.0 | 0.00 | 0.09 | 0.00 | 86 | 1010.4 |
| 20260509132601 | 71 | 304 | 4.3 | 6.1 | 0.00 | 0.09 | 0.00 | 86 | 1010.4 |
| 20260509132101 | 71 | 325 | 2.6 | 6.1 | 0.00 | 0.09 | 0.00 | 87 | 1010.4 |
| 20260509131559 | 71 | 331 | 4.3 | 6.1 | 0.00 | 0.09 | 0.00 | 87 | 1010.6 |
| 20260509131100 | 70 | 312 | 4.3 | 6.1 | 0.00 | 0.09 | 0.00 | 87 | 1010.5 |
| 20260509130604 | 70 | 308 | 1.7 | 3.5 | 0.00 | 0.09 | 0.00 | 88 | 1010.6 |
| 20260509130107 | 69 | 311 | 1.7 | 5.2 | 0.00 | 0.09 | 0.00 | 89 | 1010.6 |
| 20260509125600 | 69 | 287 | 3.5 | 6.1 | 0.00 | 0.09 | 0.00 | 89 | 1010.6 |
| 20260509125100 | 69 | 295 | 3.5 | 6.1 | 0.00 | 0.09 | 0.00 | 89 | 1010.6 |
| 20260509124602 | 68 | 330 | 3.5 | 5.2 | 0.00 | 0.09 | 0.00 | 90 | 1010.6 |
| 20260509124101 | 68 | 280 | 3.5 | 5.2 | 0.00 | 0.09 | 0.00 | 90 | 1010.6 |
| 20260509123604 | 68 | 309 | 3.5 | 5.2 | 0.00 | 0.09 | 0.00 | 90 | 1010.4 |
| 20260509123101 | 68 | 309 | 3.5 | 5.2 | 0.00 | 0.09 | 0.00 | 90 | 1010.4 |
| 20260509122559 | 67 | 299 | 3.5 | 5.2 | 0.00 | 0.09 | 0.00 | 90 | 1010.6 |
| 20260509122100 | 67 | 283 | 3.5 | 5.2 | 0.00 | 0.09 | 0.00 | 91 | 1010.4 |
| 20260509121601 | 67 | 302 | 4.3 | 5.2 | 0.00 | 0.09 | 0.00 | 91 | 1010.4 |
| 20260509121104 | 67 | 301 | 2.6 | 5.2 | 0.00 | 0.09 | 0.00 | 91 | 1010.4 |
| 20260509120601 | 67 | 290 | 2.6 | 6.1 | 0.00 | 0.09 | 0.00 | 91 | 1010.4 |
| 20260509120101 | 67 | 311 | 2.6 | 7.8 | 0.00 | 0.09 | 0.00 | 91 | 1010.4 |
| 20260509115600 | 67 | 287 | 4.3 | 7.8 | 0.00 | 0.09 | 0.00 | 91 | 1010.3 |
| 20260509115100 | 67 | 308 | 3.5 | 6.1 | 0.00 | 0.09 | 0.00 | 91 | 1010.2 |
| 20260509114601 | 67 | 299 | 3.5 | 6.1 | 0.00 | 0.09 | 0.00 | 91 | 1010.0 |
| 20260509114059 | 67 | 295 | 3.5 | 7.0 | 0.00 | 0.09 | 0.00 | 91 | 1010.0 |
| 20260509113600 | 67 | 9 | 4.3 | 7.8 | 0.00 | 0.09 | 0.00 | 91 | 1010.1 |
| 20260509113100 | 67 | 302 | 5.2 | 7.8 | 0.00 | 0.09 | 0.00 | 91 | 1009.7 |
| 20260509112559 | 67 | 311 | 3.5 | 7.0 | 0.00 | 0.09 | 0.00 | 91 | 1009.6 |
| 20260509112059 | 67 | 289 | 4.3 | 7.0 | 0.00 | 0.09 | 0.00 | 91 | 1009.7 |
| 20260509111559 | 67 | 314 | 4.3 | 6.1 | 0.00 | 0.09 | 0.00 | 91 | 1009.3 |
| 20260509111059 | 67 | 294 | 4.3 | 6.1 | 0.00 | 0.09 | 0.00 | 91 | 1009.4 |
| 20260509110602 | 67 | 288 | 2.6 | 5.2 | 0.00 | 0.09 | 0.00 | 91 | 1009.5 |
| 20260509110100 | 67 | 281 | 2.6 | 7.0 | 0.00 | 0.09 | 0.00 | 91 | 1009.3 |
| 20260509105604 | 67 | 271 | 3.5 | 7.0 | 0.00 | 0.13 | 0.00 | 91 | 1009.2 |
| 20260509105100 | 67 | 287 | 2.6 | 5.2 | 0.00 | 0.13 | 0.00 | 91 | 1009.2 |
| 20260509104601 | 67 | 293 | 1.7 | 5.2 | 0.00 | 0.13 | 0.00 | 91 | 1009.1 |
| 20260509104100 | 67 | 285 | 2.6 | 6.1 | 0.00 | 0.13 | 0.00 | 91 | 1009.0 |
| 20260509103559 | 67 | 290 | 3.5 | 6.1 | 0.00 | 0.13 | 0.00 | 91 | 1008.9 |
| 20260509103059 | 67 | 295 | 3.5 | 5.2 | 0.00 | 0.13 | 0.00 | 90 | 1008.8 |
| 20260509102559 | 68 | 295 | 1.7 | 2.6 | 0.00 | 0.13 | 0.00 | 90 | 1008.7 |
| 20260509102100 | 68 | 0 | 0.0 | 0.0 | 0.00 | 0.13 | 0.00 | 90 | 1008.7 |
| 20260509101605 | 68 | 0 | 0.0 | 0.0 | 0.00 | 0.13 | 0.00 | 89 | 1008.6 |
| 20260509101059 | 68 | 0 | 0.0 | 0.0 | 0.00 | 0.13 | 0.00 | 90 | 1008.6 |
| 20260509100556 | 68 | 0 | 0.0 | 0.0 | 0.00 | 0.13 | 0.00 | 90 | 1008.7 |
| 20260509100059 | 68 | 0 | 0.0 | 0.9 | 0.00 | 0.13 | 0.00 | 89 | 1008.6 |
| 20260509095559 | 69 | 0 | 0.0 | 1.7 | 0.00 | 0.14 | 0.00 | 89 | 1008.4 |
| 20260509095059 | 69 | 0 | 0.0 | 1.7 | 0.00 | 0.14 | 0.00 | 89 | 1008.3 |
| 20260509094558 | 69 | 122 | 0.0 | 4.3 | 0.00 | 0.14 | 0.00 | 89 | 1008.3 |
| 20260509094059 | 69 | 96 | 0.9 | 4.3 | 0.00 | 0.14 | 0.00 | 89 | 1008.2 |
| 20260509093603 | 69 | 54 | 1.7 | 4.3 | 0.00 | 0.14 | 0.00 | 88 | 1008.0 |
| 20260509093100 | 69 | 41 | 1.7 | 7.0 | 0.00 | 0.14 | 0.00 | 88 | 1007.9 |
| 20260509092602 | 69 | 70 | 2.6 | 7.0 | 0.00 | 0.14 | 0.00 | 88 | 1007.8 |
| 20260509092059 | 69 | 39 | 4.3 | 8.7 | 0.00 | 0.14 | 0.00 | 88 | 1007.6 |
| 20260509091600 | 70 | 67 | 2.6 | 9.6 | 0.00 | 0.14 | 0.00 | 87 | 1007.5 |
| 20260509091059 | 70 | 76 | 5.2 | 9.6 | 0.00 | 0.14 | 0.00 | 87 | 1007.8 |
| 20260509090600 | 70 | 39 | 3.5 | 5.2 | 0.00 | 0.14 | 0.00 | 86 | 1007.8 |
| 20260509090057 | 70 | 34 | 1.7 | 3.5 | 0.00 | 0.14 | 0.00 | 85 | 1007.8 |
| 20260509085559 | 70 | 39 | 1.7 | 3.5 | 0.00 | 0.14 | 0.00 | 85 | 1007.6 |
| 20260509085102 | 70 | 39 | 1.7 | 3.5 | 0.00 | 0.14 | 0.00 | 85 | 1007.5 |
| 20260509084605 | 70 | 11 | 1.7 | 7.0 | 0.00 | 0.14 | 0.00 | 85 | 1007.4 |
| 20260509084059 | 70 | 8 | 1.7 | 7.8 | 0.00 | 0.14 | 0.00 | 84 | 1007.1 |
| 20260509083559 | 70 | 5 | 3.5 | 9.6 | 0.00 | 0.14 | 0.00 | 84 | 1007.1 |
| 20260509083100 | 70 | 307 | 5.2 | 9.6 | 0.00 | 0.14 | 0.00 | 84 | 1007.0 |
| 20260509082600 | 70 | 257 | 3.5 | 6.1 | 0.00 | 0.14 | 0.00 | 84 | 1006.5 |
| 20260509082100 | 70 | 146 | 2.6 | 7.8 | 0.00 | 0.14 | 0.00 | 84 | 1006.0 |
| 20260509081601 | 70 | 185 | 3.5 | 7.8 | 0.00 | 0.14 | 0.00 | 84 | 1005.9 |
| 20260509081100 | 70 | 181 | 0.9 | 10.4 | 0.00 | 0.14 | 0.00 | 86 | 1006.0 |
| 20260509080559 | 70 | 193 | 3.5 | 10.4 | 0.00 | 0.14 | 0.00 | 86 | 1005.9 |
| 20260509080059 | 70 | 245 | 6.1 | 10.4 | 0.00 | 0.14 | 0.00 | 87 | 1006.1 |
| 20260509075600 | 70 | 105 | 6.1 | 10.4 | 0.00 | 0.14 | 0.00 | 87 | 1006.4 |
| 20260509075101 | 70 | 243 | 6.1 | 13.9 | 0.00 | 0.14 | 0.00 | 87 | 1006.6 |
| 20260509074607 | 70 | 174 | 6.1 | 13.9 | 0.00 | 0.14 | 0.00 | 87 | 1007.0 |
| 20260509074100 | 70 | 173 | 6.1 | 12.2 | 0.00 | 0.14 | 0.00 | 87 | 1007.3 |
| 20260509073600 | 70 | 209 | 7.0 | 13.0 | 0.00 | 0.14 | 0.00 | 87 | 1007.7 |
| 20260509073102 | 70 | 170 | 7.0 | 13.0 | 0.00 | 0.14 | 0.00 | 87 | 1008.0 |
| 20260509072601 | 70 | 152 | 5.2 | 13.0 | 0.00 | 0.14 | 0.00 | 88 | 1008.4 |
| 20260509072059 | 70 | 207 | 5.2 | 12.2 | 0.00 | 0.14 | 0.00 | 88 | 1008.7 |
| 20260509071608 | 70 | 239 | 7.0 | 12.2 | 0.00 | 0.14 | 0.00 | 88 | 1008.6 |
| 20260509071101 | 70 | 223 | 7.0 | 12.2 | 0.00 | 0.14 | 0.00 | 88 | 1008.7 |
| 20260509070600 | 69 | 211 | 4.3 | 10.4 | 0.00 | 0.14 | 0.00 | 88 | 1008.9 |
| 20260509070101 | 69 | 198 | 4.3 | 10.4 | 0.00 | 0.14 | 0.00 | 89 | 1009.1 |
| 20260509065604 | 69 | 218 | 5.2 | 9.6 | 0.00 | 0.14 | 0.00 | 89 | 1009.3 |
| 20260509065100 | 69 | 211 | 2.6 | 9.6 | 0.00 | 0.14 | 0.00 | 89 | 1009.5 |
| 20260509064618 | 68 | 190 | 4.3 | 9.6 | 0.00 | 0.14 | 0.00 | 90 | 1009.4 |
| 20260509064101 | 68 | 198 | 3.5 | 7.0 | 0.00 | 0.14 | 0.00 | 90 | 1009.5 |
| 20260509063600 | 68 | 224 | 2.6 | 5.2 | 0.00 | 0.14 | 0.00 | 90 | 1009.8 |
| 20260509063101 | 68 | 241 | 0.9 | 3.5 | 0.00 | 0.14 | 0.00 | 90 | 1010.2 |
| 20260509062600 | 67 | 158 | 0.9 | 5.2 | 0.00 | 0.14 | 0.00 | 90 | 1010.4 |
| 20260509062100 | 67 | 241 | 1.7 | 5.2 | 0.00 | 0.14 | 0.00 | 90 | 1010.5 |
| 20260509061623 | 67 | 266 | 1.7 | 5.2 | 0.00 | 0.14 | 0.00 | 90 | 1010.4 |
| 20260509061100 | 67 | 238 | 1.7 | 3.5 | 0.00 | 0.14 | 0.00 | 89 | 1010.4 |
| 20260509060600 | 67 | 209 | 0.9 | 3.5 | 0.00 | 0.14 | 0.00 | 89 | 1010.4 |
| 20260509055601 | 67 | 0 | 0.9 | 1.7 | 0.00 | 0.14 | 0.00 | 89 | 1010.4 |
| 20260509055100 | 67 | 242 | 0.0 | 3.5 | 0.00 | 0.14 | 0.00 | 89 | 1010.4 |
| 20260509054601 | 68 | 0 | 0.9 | 3.5 | 0.00 | 0.14 | 0.00 | 88 | 1010.4 |
| 20260509054101 | 68 | 208 | 1.7 | 2.6 | 0.00 | 0.14 | 0.00 | 88 | 1010.0 |
| 20260509053613 | 68 | 203 | 0.0 | 3.5 | 0.00 | 0.14 | 0.00 | 88 | 1010.3 |
| 20260509053102 | 68 | 216 | 0.9 | 3.5 | 0.00 | 0.14 | 0.00 | 88 | 1010.3 |
| 20260509052603 | 68 | 203 | 1.7 | 3.5 | 0.00 | 0.14 | 0.00 | 87 | 1010.1 |
| 20260509052103 | 69 | 203 | 1.7 | 3.5 | 0.00 | 0.14 | 0.00 | 87 | 1010.3 |
| 20260509051559 | 69 | 163 | 0.0 | 1.7 | 0.00 | 0.14 | 0.00 | 86 | 1010.7 |
| 20260509051105 | 70 | 338 | 0.0 | 2.6 | 0.00 | 0.14 | 0.00 | 86 | 1011.0 |
| 20260509050602 | 70 | 219 | 0.0 | 7.8 | 0.00 | 0.14 | 0.00 | 86 | 1010.9 |
| 20260509050108 | 70 | 290 | 1.7 | 7.8 | 0.00 | 0.14 | 0.00 | 86 | 1011.3 |
| 20260509045601 | 70 | 310 | 4.3 | 9.6 | 0.00 | 0.14 | 0.14 | 86 | 1011.6 |
| 20260509045101 | 69 | 304 | 5.2 | 10.4 | 0.00 | 0.14 | 0.14 | 87 | 1011.6 |
| 20260509044601 | 69 | 313 | 7.0 | 10.4 | 0.00 | 0.14 | 0.14 | 87 | 1011.6 |
| 20260509044101 | 69 | 316 | 6.1 | 8.7 | 0.00 | 0.14 | 0.14 | 87 | 1011.5 |
| 20260509043600 | 69 | 315 | 0.0 | 1.7 | 0.00 | 0.14 | 0.14 | 86 | 1010.6 |
| 20260509043106 | 69 | 0 | 0.0 | 0.0 | 0.00 | 0.14 | 0.14 | 86 | 1010.0 |
| 20260509042600 | 69 | 0 | 0.0 | 0.9 | 0.00 | 0.14 | 0.14 | 86 | 1010.1 |
| 20260509042101 | 70 | 0 | 0.0 | 1.7 | 0.00 | 0.14 | 0.14 | 86 | 1010.2 |
| 20260509041602 | 70 | 75 | 0.9 | 1.7 | 0.00 | 0.14 | 0.14 | 86 | 1010.3 |
| 20260509041101 | 70 | 67 | 0.9 | 1.7 | 0.00 | 0.14 | 0.14 | 86 | 1010.2 |
| 20260509040600 | 70 | 135 | 0.0 | 0.9 | 0.00 | 0.14 | 0.14 | 85 | 1009.9 |
| 20260509040100 | 70 | 0 | 0.0 | 2.6 | 0.00 | 0.14 | 0.14 | 85 | 1009.7 |
| 20260509035600 | 70 | 148 | 0.9 | 2.6 | 0.00 | 0.14 | 0.14 | 85 | 1009.4 |
| 20260509035100 | 70 | 166 | 0.9 | 2.6 | 0.00 | 0.14 | 0.14 | 85 | 1009.3 |
| 20260509034601 | 71 | 142 | 0.9 | 3.5 | 0.00 | 0.14 | 0.14 | 85 | 1009.3 |
| 20260509034101 | 71 | 162 | 0.9 | 4.3 | 0.00 | 0.14 | 0.14 | 84 | 1009.3 |
| 20260509033602 | 71 | 190 | 1.7 | 4.3 | 0.00 | 0.14 | 0.14 | 84 | 1009.2 |
| 20260509033100 | 71 | 194 | 0.9 | 4.3 | 0.00 | 0.14 | 0.14 | 84 | 1009.2 |
| 20260509032601 | 71 | 143 | 1.7 | 4.3 | 0.00 | 0.14 | 0.14 | 84 | 1009.2 |
| 20260509032100 | 71 | 172 | 1.7 | 4.3 | 0.00 | 0.14 | 0.14 | 84 | 1009.3 |
| 20260509031601 | 71 | 223 | 1.7 | 5.2 | 0.00 | 0.14 | 0.14 | 84 | 1009.5 |
| 20260509031101 | 71 | 172 | 2.6 | 5.2 | 0.00 | 0.14 | 0.14 | 84 | 1010.2 |
| 20260509030559 | 71 | 18 | 2.6 | 5.2 | 0.00 | 0.14 | 0.14 | 85 | 1010.5 |
| 20260509030059 | 70 | 11 | 1.7 | 2.6 | 0.00 | 0.14 | 0.14 | 85 | 1010.4 |
| 20260509025601 | 70 | 332 | 1.7 | 2.6 | 0.00 | 0.14 | 0.14 | 85 | 1010.2 |
| 20260509025059 | 70 | 49 | 1.7 | 3.5 | 0.00 | 0.14 | 0.14 | 85 | 1009.8 |
| 20260509024559 | 70 | 32 | 1.7 | 3.5 | 0.00 | 0.14 | 0.14 | 85 | 1009.5 |
| 20260509024100 | 70 | 19 | 0.9 | 2.6 | 0.00 | 0.14 | 0.14 | 85 | 1009.3 |
| 20260509023559 | 70 | 56 | 0.9 | 2.6 | 0.00 | 0.14 | 0.14 | 85 | 1009.1 |
| 20260509023057 | 70 | 0 | 0.0 | 3.5 | 0.00 | 0.14 | 0.14 | 85 | 1008.9 |
| 20260509022600 | 70 | 115 | 0.0 | 4.3 | 0.00 | 0.14 | 0.14 | 84 | 1008.7 |
| 20260509022103 | 70 | 194 | 1.7 | 4.3 | 0.00 | 0.14 | 0.14 | 84 | 1008.5 |
| 20260509021559 | 70 | 115 | 0.9 | 3.5 | 0.00 | 0.14 | 0.14 | 84 | 1008.3 |
| 20260509021101 | 70 | 166 | 0.0 | 4.3 | 0.00 | 0.14 | 0.14 | 84 | 1008.2 |
| 20260509020559 | 70 | 122 | 0.9 | 4.3 | 0.00 | 0.14 | 0.14 | 84 | 1008.0 |
| 20260509020058 | 71 | 146 | 1.7 | 3.5 | 0.00 | 0.14 | 0.14 | 83 | 1007.8 |
| 20260509015559 | 71 | 144 | 1.7 | 3.5 | 0.00 | 0.14 | 0.14 | 83 | 1007.8 |
| 20260509015101 | 71 | 131 | 0.9 | 4.3 | 0.00 | 0.14 | 0.14 | 82 | 1008.0 |
| 20260509014559 | 71 | 172 | 0.0 | 4.3 | 0.00 | 0.14 | 0.14 | 82 | 1007.9 |
| 20260509014100 | 71 | 162 | 1.7 | 4.3 | 0.00 | 0.14 | 0.14 | 82 | 1007.8 |
| 20260509013600 | 71 | 188 | 0.9 | 3.5 | 0.00 | 0.14 | 0.14 | 81 | 1007.8 |
| 20260509013058 | 72 | 130 | 0.9 | 3.5 | 0.00 | 0.14 | 0.14 | 81 | 1007.7 |
| 20260509012559 | 72 | 165 | 1.7 | 3.5 | 0.00 | 0.14 | 0.14 | 80 | 1007.9 |
| 20260509012101 | 72 | 143 | 0.9 | 3.5 | 0.00 | 0.14 | 0.14 | 80 | 1008.2 |
| 20260509011601 | 72 | 139 | 0.9 | 5.2 | 0.00 | 0.14 | 0.14 | 79 | 1008.3 |
| 20260509011059 | 73 | 162 | 0.9 | 5.2 | 0.00 | 0.14 | 0.14 | 79 | 1008.3 |
| 20260509010559 | 73 | 157 | 1.7 | 5.2 | 0.00 | 0.14 | 0.14 | 79 | 1008.3 |
| 20260509010104 | 73 | 160 | 1.7 | 3.5 | 0.00 | 0.14 | 0.14 | 78 | 1008.3 |
| 20260509005603 | 73 | 157 | 1.7 | 6.1 | 0.00 | 0.14 | 0.14 | 78 | 1008.3 |
| 20260509005059 | 73 | 193 | 0.9 | 7.0 | 0.00 | 0.14 | 0.14 | 78 | 1008.3 |
| 20260509004621 | 73 | 196 | 3.5 | 7.0 | 0.00 | 0.14 | 0.14 | 77 | 1008.2 |
| 20260509004100 | 74 | 209 | 1.7 | 3.5 | 0.00 | 0.14 | 0.14 | 77 | 1008.1 |
| 20260509003604 | 74 | 157 | 1.7 | 4.3 | 0.00 | 0.14 | 0.14 | 77 | 1008.0 |
| 20260509003058 | 74 | 165 | 1.7 | 4.3 | 0.00 | 0.14 | 0.14 | 76 | 1008.0 |
| 20260509002559 | 74 | 155 | 1.7 | 4.3 | 0.00 | 0.14 | 0.14 | 76 | 1007.8 |
| 20260509002100 | 75 | 151 | 1.7 | 7.8 | 0.00 | 0.14 | 0.14 | 76 | 1007.8 |
| 20260509001559 | 75 | 137 | 1.7 | 7.8 | 0.00 | 0.14 | 0.14 | 75 | 1007.8 |
| 20260509001100 | 75 | 207 | 3.5 | 7.8 | 0.00 | 0.14 | 0.14 | 75 | 1007.6 |
| 20260509000559 | 75 | 158 | 4.3 | 7.8 | 0.00 | 0.14 | 0.14 | 74 | 1007.7 |
| 20260509000100 | 75 | 207 | 4.3 | 7.8 | 0.00 | 0.14 | 0.14 | 74 | 1007.8 |
| 20260508235600 | 76 | 141 | 3.5 | 8.7 | 0.00 | 0.14 | 0.14 | 73 | 1007.8 |
| 20260508235101 | 76 | 175 | 3.5 | 8.7 | 0.00 | 0.14 | 0.14 | 73 | 1007.8 |
| 20260508234605 | 76 | 222 | 4.3 | 8.7 | 0.00 | 0.14 | 0.14 | 73 | 1008.0 |
| 20260508234101 | 76 | 214 | 3.5 | 8.7 | 0.00 | 0.14 | 0.14 | 73 | 1008.0 |
| 20260508233600 | 76 | 160 | 3.5 | 8.7 | 0.00 | 0.14 | 0.14 | 72 | 1008.0 |
| 20260508233103 | 76 | 176 | 4.3 | 8.7 | 0.00 | 0.14 | 0.14 | 72 | 1008.0 |
| 20260508232559 | 76 | 170 | 3.5 | 8.7 | 0.00 | 0.14 | 0.14 | 72 | 1008.0 |
| 20260508232100 | 76 | 149 | 2.6 | 8.7 | 0.00 | 0.14 | 0.14 | 72 | 1008.1 |
| 20260508231559 | 76 | 217 | 3.5 | 8.7 | 0.00 | 0.14 | 0.14 | 71 | 1008.1 |
| 20260508231100 | 76 | 123 | 4.3 | 7.8 | 0.00 | 0.14 | 0.14 | 71 | 1008.0 |
| 20260508230600 | 77 | 171 | 3.5 | 7.0 | 0.00 | 0.14 | 0.14 | 70 | 1008.0 |
| 20260508230059 | 77 | 160 | 3.5 | 8.7 | 0.00 | 0.14 | 0.14 | 70 | 1008.1 |
| 20260508225559 | 77 | 175 | 3.5 | 8.7 | 0.00 | 0.14 | 0.14 | 70 | 1008.0 |
| 20260508225100 | 77 | 207 | 4.3 | 8.7 | 0.00 | 0.14 | 0.14 | 70 | 1008.1 |
| 20260508224559 | 77 | 207 | 3.5 | 7.8 | 0.00 | 0.14 | 0.14 | 69 | 1008.1 |
| 20260508224102 | 77 | 236 | 3.5 | 7.8 | 0.00 | 0.14 | 0.14 | 69 | 1008.1 |
| 20260508223600 | 77 | 236 | 2.6 | 7.8 | 0.00 | 0.14 | 0.14 | 70 | 1008.2 |
| 20260508223100 | 77 | 206 | 2.6 | 8.7 | 0.00 | 0.14 | 0.14 | 69 | 1008.3 |
| 20260508222559 | 77 | 111 | 2.6 | 8.7 | 0.00 | 0.14 | 0.14 | 69 | 1008.3 |
| 20260508222101 | 77 | 159 | 4.3 | 8.7 | 0.00 | 0.14 | 0.14 | 68 | 1008.3 |
| 20260508221558 | 77 | 210 | 5.2 | 7.8 | 0.00 | 0.14 | 0.14 | 69 | 1008.3 |
| 20260508221100 | 77 | 203 | 4.3 | 7.0 | 0.00 | 0.14 | 0.14 | 68 | 1008.3 |
| 20260508220559 | 77 | 183 | 2.6 | 7.0 | 0.00 | 0.14 | 0.14 | 68 | 1008.3 |
| 20260508220100 | 78 | 211 | 2.6 | 7.8 | 0.00 | 0.14 | 0.14 | 68 | 1008.3 |
| 20260508215559 | 77 | 145 | 2.6 | 7.8 | 0.00 | 0.14 | 0.14 | 70 | 1008.3 |
| 20260508215100 | 77 | 163 | 3.5 | 7.8 | 0.00 | 0.14 | 0.14 | 68 | 1008.3 |
| 20260508214607 | 78 | 224 | 3.5 | 7.8 | 0.00 | 0.14 | 0.14 | 69 | 1008.3 |
| 20260508214059 | 78 | 180 | 2.6 | 7.8 | 0.00 | 0.14 | 0.14 | 68 | 1008.3 |
| 20260508213559 | 77 | 131 | 3.5 | 11.3 | 0.00 | 0.14 | 0.14 | 70 | 1008.3 |
| 20260508213056 | 77 | 213 | 4.3 | 11.3 | 0.00 | 0.14 | 0.14 | 69 | 1008.2 |
| 20260508212559 | 77 | 135 | 3.5 | 8.7 | 0.00 | 0.14 | 0.14 | 69 | 1008.3 |
| 20260508212059 | 77 | 195 | 4.3 | 8.7 | 0.00 | 0.14 | 0.14 | 68 | 1008.4 |
| 20260508211557 | 77 | 193 | 3.5 | 7.8 | 0.00 | 0.14 | 0.14 | 68 | 1008.5 |
| 20260508211101 | 78 | 213 | 3.5 | 7.0 | 0.00 | 0.14 | 0.14 | 68 | 1008.5 |
| 20260508210604 | 77 | 184 | 3.5 | 7.0 | 0.00 | 0.14 | 0.14 | 69 | 1008.4 |
| 20260508210059 | 78 | 91 | 3.5 | 7.0 | 0.00 | 0.14 | 0.14 | 69 | 1008.4 |
| 20260508205600 | 78 | 197 | 2.6 | 7.0 | 0.00 | 0.14 | 0.14 | 68 | 1008.4 |
| 20260508205100 | 77 | 198 | 2.6 | 8.7 | 0.00 | 0.14 | 0.14 | 70 | 1008.6 |
| 20260508204600 | 77 | 169 | 2.6 | 9.6 | 0.00 | 0.14 | 0.14 | 70 | 1008.8 |
| 20260508204059 | 76 | 221 | 4.3 | 9.6 | 0.00 | 0.14 | 0.14 | 70 | 1009.1 |
| 20260508203601 | 75 | 176 | 4.3 | 9.6 | 0.00 | 0.14 | 0.14 | 72 | 1009.2 |
| 20260508203102 | 75 | 141 | 4.3 | 9.6 | 0.00 | 0.14 | 0.14 | 69 | 1009.7 |
| 20260508202601 | 75 | 225 | 3.5 | 8.7 | 0.00 | 0.14 | 0.14 | 71 | 1010.0 |
| 20260508202101 | 75 | 196 | 3.5 | 8.7 | 0.00 | 0.14 | 0.14 | 71 | 1010.2 |
| 20260508201558 | 75 | 170 | 5.2 | 7.8 | 0.00 | 0.14 | 0.14 | 71 | 1010.3 |
| 20260508201154 | 75 | 153 | 3.5 | 7.8 | 0.00 | 0.14 | 0.14 | 70 | 1010.3 |
| 20260508200600 | 76 | 229 | 3.5 | 8.7 | 0.00 | 0.14 | 0.14 | 70 | 1010.4 |
| 20260508200100 | 76 | 153 | 3.5 | 8.7 | 0.00 | 0.14 | 0.14 | 70 | 1010.4 |
| 20260508195600 | 76 | 274 | 5.2 | 8.7 | 0.00 | 0.14 | 0.14 | 68 | 1010.4 |
| 20260508195103 | 76 | 178 | 3.5 | 7.8 | 0.00 | 0.14 | 0.14 | 69 | 1010.4 |
| 20260508194559 | 77 | 229 | 2.6 | 7.8 | 0.00 | 0.14 | 0.14 | 70 | 1010.4 |
| 20260508194059 | 77 | 159 | 3.5 | 8.7 | 0.00 | 0.14 | 0.14 | 68 | 1010.4 |
| 20260508193601 | 77 | 199 | 3.5 | 8.7 | 0.00 | 0.14 | 0.14 | 70 | 1010.4 |
| 20260508193120 | 76 | 165 | 4.3 | 8.7 | 0.00 | 0.14 | 0.14 | 68 | 1010.4 |
| 20260508192600 | 77 | 226 | 4.3 | 8.7 | 0.00 | 0.14 | 0.14 | 67 | 1010.5 |
| 20260508192103 | 77 | 225 | 4.3 | 7.0 | 0.00 | 0.14 | 0.14 | 67 | 1010.4 |
| 20260508191603 | 77 | 151 | 2.6 | 8.7 | 0.00 | 0.14 | 0.14 | 69 | 1010.4 |
| 20260508191101 | 78 | 226 | 4.3 | 8.7 | 0.00 | 0.14 | 0.14 | 67 | 1010.5 |
| 20260508190601 | 77 | 188 | 3.5 | 8.7 | 0.00 | 0.14 | 0.14 | 68 | 1010.6 |
| 20260508190110 | 78 | 184 | 4.3 | 7.0 | 0.00 | 0.14 | 0.14 | 68 | 1010.6 |
| 20260508185603 | 78 | 177 | 3.5 | 7.0 | 0.00 | 0.14 | 0.14 | 68 | 1010.7 |
| 20260508185101 | 78 | 181 | 1.7 | 5.2 | 0.00 | 0.14 | 0.14 | 68 | 1010.7 |
| 20260508184607 | 77 | 168 | 2.6 | 5.2 | 0.00 | 0.14 | 0.14 | 71 | 1010.8 |
| 20260508184100 | 77 | 199 | 1.7 | 5.2 | 0.00 | 0.14 | 0.14 | 69 | 1010.8 |
| 20260508183600 | 76 | 144 | 2.6 | 7.8 | 0.00 | 0.14 | 0.14 | 70 | 1010.9 |
| 20260508183114 | 76 | 174 | 3.5 | 7.8 | 0.00 | 0.14 | 0.14 | 70 | 1011.0 |
| 20260508182600 | 76 | 198 | 3.5 | 7.0 | 0.00 | 0.14 | 0.14 | 69 | 1010.9 |
| 20260508182100 | 76 | 148 | 3.5 | 6.1 | 0.00 | 0.14 | 0.14 | 70 | 1011.0 |
| 20260508181603 | 76 | 172 | 2.6 | 7.0 | 0.00 | 0.14 | 0.14 | 70 | 1011.1 |
| 20260508181104 | 76 | 157 | 2.6 | 7.0 | 0.00 | 0.14 | 0.14 | 72 | 1011.2 |
| 20260508180601 | 76 | 208 | 3.5 | 6.1 | 0.00 | 0.14 | 0.14 | 71 | 1011.3 |
| 20260508180121 | 76 | 153 | 3.5 | 5.2 | 0.00 | 0.14 | 0.14 | 71 | 1011.5 |
| 20260508175601 | 75 | 131 | 2.6 | 9.6 | 0.00 | 0.14 | 0.14 | 69 | 1011.5 |
| 20260508175101 | 75 | 207 | 4.3 | 9.6 | 0.00 | 0.14 | 0.14 | 69 | 1011.6 |
| 20260508174614 | 76 | 179 | 0.9 | 6.1 | 0.00 | 0.14 | 0.14 | 72 | 1011.7 |